Nashua, NH

7:17 AM EDT on October 21, 2019 (GMT -0400)
Boire

Weather History for KASH - August, 2019

Change the Weather History Date:

Wednesday, August 7, 2019

  Actual Average Record
Temperature  
Mean Temperature 73 °F -  
Max Temperature 84 °F 80 °F 95 °F (2001)
Min Temperature 64 °F 57 °F 43 °F (1951)
Cooling Degree Days 8    
Growing Degree Days 23 (Base 50)    
Moisture  
Dew Point 70 °F    
Average Humidity 93    
Maximum Humidity 100    
Minimum Humidity 69    
Precipitation  
Precipitation 0.62 in - - ()
Sea Level Pressure  
Sea Level Pressure 29.84 in    
Wind  
Wind Speed 2 mph (SE)    
Max Wind Speed 12 mph    
Max Gust Speed 18 mph    
Visibility 9 miles    
Events Rain , Thunderstorm    
Averages and records for this station are not official NWS values.
T = Trace of Precipitation, MM = Missing Value Source: NWS Daily Summary

Daily Weather History Graph

Daily Weather History Graph

Search for Another Location

Airport or City:

Astronomy

Aug. 07, 2019 Rise Set
Actual Time 5:43 AM EDT 7:59 PM EDT
Civil Twilight 5:12 AM EDT 8:30 PM EDT
Nautical Twilight 4:33 AM EDT 9:09 PM EDT
Astronomical Twilight 3:50 AM EDT 9:52 PM EDT
Moon 1:22 PM EDT (8/7) No Moon Set
Length of Visible Light 15h 18m
Length of Day
14h 15m
Waxing Crescent, 49% of the Moon is Illuminated
Aug 7
Waxing Crescent
Aug 7
First Quarter
Aug 15
Full
Aug 23
Last Quarter
Aug 30
New

Hourly Weather History & Observations

Time (EDT) Temp. Heat Index Dew Point Humidity Pressure Visibility Wind Dir Wind Speed Gust Speed Precip Events Conditions
12:56 AM 68.0 °F - 66.9 °F 96% 29.85 in 10.0 mi SE 3.5 mph - N/A   Clear
1:56 AM 66.9 °F - 66.9 °F 100% 29.85 in 10.0 mi Calm Calm - N/A   Clear
2:56 AM 66.0 °F - 66.0 °F 100% 29.85 in 10.0 mi Calm Calm - N/A   Clear
3:56 AM 64.9 °F - 64.9 °F 100% 29.86 in 10.0 mi Calm Calm - N/A   Clear
4:56 AM 66.0 °F - 66.0 °F 100% 29.86 in 10.0 mi Calm Calm - N/A   Mostly Cloudy
5:04 AM 66.2 °F - 66.2 °F 100% 29.85 in 10.0 mi Calm Calm - N/A   Mostly Cloudy
5:14 AM 66.2 °F - 66.2 °F 100% 29.85 in 10.0 mi Calm Calm - N/A   Scattered Clouds
5:56 AM 66.0 °F - 66.0 °F 100% 29.87 in 10.0 mi Calm Calm - N/A   Overcast
6:07 AM 66.2 °F - 66.2 °F 100% 29.86 in 10.0 mi Calm Calm - N/A   Overcast
6:27 AM 66.2 °F - 66.2 °F 100% 29.87 in 10.0 mi SE 3.5 mph - N/A   Scattered Clouds
6:56 AM 66.9 °F - 66.9 °F 100% 29.87 in 10.0 mi Calm Calm - N/A   Partly Cloudy
7:56 AM 71.1 °F - 69.1 °F 93% 29.88 in 10.0 mi Calm Calm - N/A   Partly Cloudy
8:56 AM 75.0 °F - 70.0 °F 84% 29.87 in 10.0 mi Calm Calm - N/A   Mostly Cloudy
9:31 AM 77.0 °F - 71.6 °F 83% 29.86 in 10.0 mi Variable 4.6 mph - N/A   Mostly Cloudy
9:56 AM 79.0 °F - 71.1 °F 77% 29.87 in 10.0 mi Variable 5.8 mph - N/A   Mostly Cloudy
10:56 AM 79.0 °F - 72.0 °F 79% 29.86 in 10.0 mi Variable 3.5 mph - N/A   Overcast
11:56 AM 81.0 °F 85.2 °F 72.0 °F 74% 29.86 in 10.0 mi Variable 4.6 mph - N/A   Mostly Cloudy
12:56 PM 82.9 °F 88.0 °F 72.0 °F 69% 29.85 in 10.0 mi Calm Calm - N/A   Mostly Cloudy
1:56 PM 82.9 °F 88.8 °F 73.0 °F 72% 29.83 in 9.0 mi Calm Calm - N/A   Mostly Cloudy
2:38 PM 78.8 °F - 75.2 °F 89% 29.81 in 6.0 mi Calm Calm - 0.00 in Rain , Thunderstorm Light Rain
2:56 PM 80.1 °F 83.6 °F 71.1 °F 74% 29.81 in 7.0 mi SSE 11.5 mph 18.4 mph 0.00 in Rain , Thunderstorm Light Rain
3:25 PM 77.0 °F - 71.6 °F 83% 29.80 in 10.0 mi SSE 4.6 mph 16.1 mph 0.00 in   Mostly Cloudy
3:56 PM 78.1 °F - 73.0 °F 84% 29.81 in 10.0 mi SE 6.9 mph - 0.00 in   Mostly Cloudy
4:56 PM 77.0 °F - 73.9 °F 90% 29.81 in 10.0 mi SSE 3.5 mph - N/A   Scattered Clouds
5:08 PM 77.0 °F - 75.2 °F 94% 29.80 in 10.0 mi SE 4.6 mph - 0.00 in Rain , Thunderstorm Light Rain
5:56 PM 75.9 °F - 73.9 °F 94% 29.81 in 10.0 mi Calm Calm - 0.07 in Thunderstorm Mostly Cloudy
5:58 PM 75.2 °F - 73.4 °F 94% 29.79 in 10.0 mi Calm Calm - N/A   Mostly Cloudy
6:56 PM 75.0 °F - 73.9 °F 96% 29.82 in 10.0 mi Calm Calm - N/A   Mostly Cloudy
7:56 PM 73.0 °F - 73.0 °F 100% 29.81 in 10.0 mi SE 3.5 mph - N/A   Scattered Clouds
8:37 PM 73.4 °F - 73.4 °F 100% 29.80 in 10.0 mi Calm Calm - 0.00 in Rain , Thunderstorm Light Rain
8:54 PM 71.6 °F - 71.6 °F 100% 29.83 in 5.0 mi Variable 5.8 mph - 0.12 in Rain Heavy Rain
8:56 PM 71.1 °F - 71.1 °F 100% 29.84 in 5.0 mi Variable 3.5 mph - 0.13 in Rain Heavy Rain
9:56 PM 68.0 °F - 68.0 °F 100% 29.85 in 5.0 mi Calm Calm - 0.14 in Rain Rain
10:23 PM 69.8 °F - 69.8 °F 100% 29.82 in 7.0 mi ESE 3.5 mph - 0.08 in Rain , Thunderstorm Rain
10:38 PM 68.0 °F - 68.0 °F 100% 29.82 in 5.0 mi Variable 3.5 mph - 0.13 in Rain Rain
10:56 PM 68.0 °F - 68.0 °F 100% 29.83 in 10.0 mi Calm Calm - 0.18 in Rain Rain
11:56 PM 68.0 °F - 68.0 °F 100% 29.78 in 10.0 mi SE 8.1 mph - 0.10 in Rain Light Rain